Regional Weather Roundup
Issued by NWS

Home | Current Version | Previous Version | Text Only | Print | Product List | Glossary Off
Versions: 1 2 3 4 5 6 7 8 9 10 11 12 13 14 15 16 17 18 19 20 21 22 23 24 25 26 27 28 29 30 31 32 33 34 35 36 37 38 39 40 41 42 43 44 45 46 47 48 49 50

000
ASUS43 KDTX 281410
RWRMI
MICHIGAN HOURLY REGIONAL WEATHER ROUNDUP
NATIONAL WEATHER SERVICE DETROIT/PONTIAC MI
900 AM EST SUN DEC 28 2014

NOTE: "FAIR" INDICATES FEW OR NO CLOUDS BELOW 12,000 FEET WITH NO
SIGNIFICANT WEATHER AND/OR OBSTRUCTION TO VISIBILITY.

MIZ047>049-052>055-059>063-066>070-074>076-081>083-281500-
SOUTHEAST LOWER MICHIGAN

CITY           SKY/WX    TMP DP  RH WIND       PRES   REMARKS
ADRIAN         CLOUDY    34  29  82 NW7       30.10R
ALMA           PTCLDY    28  25  86 W8        30.08R
ANN ARBOR      CLOUDY    34  31  88 NW8       30.08R
BAD AXE        CLOUDY    33  28  81 W12       30.04R
DETROIT CITY   CLOUDY    38  30  73 W3        30.07R
DETROIT        CLOUDY    36  31  82 W5        30.08R
FLINT          PTCLDY    34  29  82 W10       30.06S
GROSSE ILE     CLOUDY    36  30  80 W5        30.07R
HILLSDALE      CLOUDY    33  31  92 W7        30.08R
HOWELL         MOCLDY    32  29  89 W6        30.06R

CITY           SKY/WX    TMP DP  RH WIND       PRES   REMARKS
JACKSON        CLOUDY    33  25  72 NW12      30.08R
LAMBERTVILLE   CLOUDY    36  32  87 W6        30.10R
LANSING        MOCLDY    30  26  85 W6        30.09R
LAPEER         NOT AVBL
MASON          CLOUDY    31  27  82 W8        30.08R
MONROE         CLOUDY    36  32  87 W9        30.08R
MT. CLEMENS    CLOUDY    36  30  79 NW3       30.03S
PONTIAC        CLOUDY    34  29  82 W8        30.04R
PORT HOPE        N/A     34  28  79 W6        30.01R
PORT HURON     CLOUDY    34  30  86 CALM      30.04F
TRI CITIES     CLOUDY    33  25  72 W9        30.06S
YPSILANTI      CLOUDY    38  31  76 W8        30.08R
$$
MIZ043>046-050>051-056>058-064>065-071>073-077>080-281500-
SOUTHWEST LOWER MICHIGAN

CITY           SKY/WX    TMP DP  RH WIND       PRES   REMARKS
BATTLE CREEK   CLOUDY    32  24  72 W8        30.10R
BENTON HARBOR  CLOUDY    31  23  72 W7        30.14R
BIG RAPIDS     CLEAR     26  22  84 NW6       30.06R
COLDWATER      CLOUDY    32  25  74 W9        30.11R
HOLLAND        CLOUDY    33  24  69 W5        30.12R
GRAND RAPIDS   CLOUDY    30  22  72 W10       30.10R
KALAMAZOO      CLOUDY    32  24  72 W8        30.12R
MARSHALL       CLOUDY    31  26  80 W9        30.09R
MUSKEGON       PTCLDY    29  22  75 W5        30.11R
$$
MIZ016>042-281500-
NORTHERN LOWER MICHIGAN

CITY           SKY/WX    TMP DP  RH WIND       PRES   REMARKS
ALPENA         PTCLDY    29  21  72 W3        30.00S
BEAVER ISLAND  CLEAR     25  20  80 W8        30.01R
BELLAIRE       CLOUDY    28  20  70 SW5       30.04R
CADILLAC       CLEAR     23  18  83 SW6       30.01S
CHARLEVOIX     PTCLDY    27  19  70 W13       30.04R
FRANKFORT      MOSUNNY   26  20  78 NW7       30.06S
GAYLORD        MOCLDY    23  18  81 W6        29.98R
GRAYLING       CLEAR     23  19  81 W6        30.01S
HARBOR SPRINGS PTCLDY    28  18  66 W10G20    30.00R
HOUGHTON LAKE  CLEAR     25  18  74 W9        30.02S
MANISTEE       MOCLDY    28  19  69 W10       30.07R
OSCODA         MOCLDY    31  24  75 W9        30.01S
PELLSTON       CLEAR     24  18  77 CALM      30.00S
TRAVERSE CITY  PTCLDY    26  20  77 SW6       30.04R
$$
MIZ007>008-015-281500-
EASTERN UPPER MICHIGAN

CITY           SKY/WX    TMP DP  RH WIND       PRES   REMARKS
KINROSS        PTCLDY    21  21 100 SW6       29.95S
MACKINAC ISLAN CLEAR     26  21  80 W10G17    29.98S
NEWBERRY       PTCLDY    16  13  90 SW12      29.96S
S. S. MARIE    CLOUDY    24  19  81 SW10      29.94F
$$
MIZ004>006-011>014-085-281500-
CENTRAL UPPER MICHIGAN

CITY           SKY/WX    TMP DP  RH WIND       PRES   REMARKS
MANISTIQUE     CLOUDY    18  15  88 W9        30.00R
ESCANABA       CLOUDY    18  10  73 W9        30.02R
MENOMINEE      PTCLDY    18  10  73 W7        30.07R
SAWYER-GWINN   CLOUDY    14  10  85 CALM      29.97R
$$
MIZ001>003-009>011-084-281500-
WESTERN UPPER MICHIGAN

CITY           SKY/WX    TMP DP  RH WIND       PRES   REMARKS
IRON MOUNTAIN    N/A     14   9  80 W7        30.00R
HOUGHTON       LGT SNOW  18  13  80 NW12      29.97R
COPPER HARBOR    N/A     23  15  71 N22       29.99R
IRONWOOD       CLOUDY    16  14  93 W9        30.00R
$$

ABBREVIATIONS USED IN REMARKS
   TC - TEMPERATURE IN CELSIUS
  WCI - WIND CHILL INDEX
   HX - HEAT INDEX
  VSB - VISIBILITY




USA.gov is the U.S. government's official web portal to all federal, state and local government web resources and services.